User: anonymous   Login
Location: Canyam�s
(41.5996°N, 2.4450°E)
Time: 02:39:46
(UTC+00:00)
Language:

NOSS 3-2 (A) - Orbit

View from above orbital plane
View from above orbital plane
View from above satellite
View from above satellite

Ground track
Ground track

The orbit data is extracted from the following two-line orbital elements,

1 28095U 03054A   20218.01040866 0.00000000  00000-0  00000-0 0    07
2 28095  63.4171 266.7958 0409179 359.1025   0.8975 13.41389368    01
Epoch (UTC): 05 August 2020 00:14:59
Eccentricity: 0.0409179
inclination: 63.4171°
perigee height: 798 km
apogee height: 1410 km
right ascension of ascending node: 266.7958°
argument of perigee: 359.1025°
revolutions per day: 13.41389368
mean anomaly at epoch: 0.8975°
orbit number at epoch: 0

The dashed part of the orbit path shows where the satellite is in the earth's shadow,  

DLR